sat.trackr.live / text

‹ back to catalog

FALCON HEAVY R/B

NORAD 68894 · 2026-096B

ROCKET_BODY UNKNOWN UNKNOWN

§ Identity

Operator
Country
US
Launch date
2026-04-29
Launch site
AFETR
Launch vehicle
Mass (kg)
RCS (m²)

External: N2YO · Heavens-Above · Gunter

§ Orbital elements

Epoch: 2026-05-24T20:42:20.310048Z

Period
1,059.45 min
Inclination
2.6707°
Eccentricity
0.1483210
Mean motion
1.35919139 rev/d
Perigee alt
22,941.4 km
Apogee alt
33,153.5 km
Semi-major
34,425.6 km
B*
0.0000e+0
RAAN
279.9895°
Arg perigee
180.9227°
Mean anomaly
178.8827°
Rev number
34

§ Raw data

FALCON HEAVY R/B1 68894U 26096B   26144.86273507 -.00000116  00000+0  00000+0 0  99902 68894   2.6707 279.9895 1483210 180.9227 178.8827  1.35919139   345

JSON: /api/v1/satellites/68894 · /tle

For live sub-satellite position, see the globe view (requires WebGL).

§ Visibility from observer

Set your observer location to see the next 7 days of passes ≥ 10°. The values pass through the URL so the page stays shareable.

No JS? Fill the form by hand. The geolocation button needs JavaScript.